Location: ????????
(55.0808°N, 38.5463°E)
Time: 02:31:35
(UTC+00:00)

Nimbus 3 Rocket - Pass Details

Date: 19 September 2024
Orbit: 1072 x 1131 km, 99.9° (Epoch: 03 October)

Event Time Altitude Azimuth Distance (km) Brightness Sun altitude
Rises 22:47:53 0° 17° (NNE) 3,924 9.3 -31.1°
Reaches altitude 10° 22:50:32 10° 12° (NNE) 2,955 8.3 -30.9°
Maximum altitude 22:56:51 47° 301° (WNW) 1,407 5.7 -30.5°
Enters shadow 22:57:12 47° 292° (WNW) 1,414 5.7 -30.4°
